User: anonymous   Login
Location: Civry
(47.2902°N, 4.6156°E)
Time: 11:34:40
(UTC+00:00)
Language:

Mayak - Orbit

View from above orbital plane
View from above orbital plane
View from above satellite
View from above satellite

Ground track
Ground track

The orbit data is extracted from the following two-line orbital elements,

1 42830U 17042F   20184.91923838  .00000221  00000-0  26840-4 0  9998
2 42830  97.5262  67.4532 0012794 223.6060 136.4149 14.92250891161668
Epoch (UTC): 02 July 2020 22:03:42
Eccentricity: 0.0012794
inclination: 97.5262°
perigee height: 582 km
apogee height: 600 km
right ascension of ascending node: 67.4532°
argument of perigee: 223.6060°
revolutions per day: 14.92250891
mean anomaly at epoch: 136.4149°
orbit number at epoch: 16166

The dashed part of the orbit path shows where the satellite is in the earth's shadow,  

DLR